Tracking 31027 objects as of 19-Jul-2025
HD Live streaming from Space Station
objects crossing your sky now

SL-8 R/B

Track SL-8 R/B now!
10-day predictions


NORAD ID: 9848
Int'l Code: 1977-013B
Perigee: 975.1 km
Apogee: 997.3 km
Inclination: 83.0 °
Period: 104.7 minutes
Semi major axis: 7357 km
RCS: 4.757 m2 (large)
Launch date: February 21, 1977
Source: Commonwealth of Independent States (former USSR) (CIS)
Launch site: PLESETSK MISSILE AND SPACE COMPLEX (PKMTR)

Note: This is a ROCKET BODY
Your satellite tracking list
SL-14 DEB
Track 1 satellite(s)




NASA's NSSDC Master Catalog

Two Line Element Set (TLE):
1 09848U 77013B   25199.47210340  .00000080  00000-0  66939-4 0  9999
2 09848  82.9532 318.8358 0015117 277.6129 155.5698 13.75730430429068
Source of the keplerian elements: AFSPC